TimeCST,TemperatureF,Dew PointF,Humidity,Sea Level PressureIn,VisibilityMPH,Wind Direction,Wind SpeedMPH,Gust SpeedMPH,PrecipitationIn,Events,Conditions,WindDirDegrees,DateUTC
12:56 AM,42.1,30.0,62,30.08,10.0,NW,9.2,-,N/A,,Clear,320,2013-01-31 06:56:00
1:56 AM,41.0,28.9,62,30.09,10.0,NW,8.1,-,N/A,,Clear,310,2013-01-31 07:56:00
2:56 AM,37.9,30.0,73,30.11,10.0,NW,5.8,-,N/A,,Clear,310,2013-01-31 08:56:00
3:56 AM,39.0,28.9,67,30.12,10.0,NW,9.2,-,N/A,,Clear,320,2013-01-31 09:56:00
4:56 AM,37.9,28.9,70,30.12,10.0,WNW,3.5,-,N/A,,Clear,290,2013-01-31 10:56:00
5:56 AM,35.1,28.9,78,30.14,10.0,Calm,Calm,-,N/A,,Clear,0,2013-01-31 11:56:00
6:56 AM,33.1,30.0,89,30.16,10.0,WNW,4.6,-,N/A,,Clear,300,2013-01-31 12:56:00
7:56 AM,39.0,30.9,73,30.19,10.0,WNW,4.6,-,N/A,,Clear,290,2013-01-31 13:56:00
8:56 AM,44.1,30.9,60,30.22,10.0,NW,8.1,-,N/A,,Clear,310,2013-01-31 14:56:00
9:56 AM,48.9,28.0,44,30.23,10.0,NNW,17.3,21.9,N/A,,Clear,330,2013-01-31 15:56:00
10:56 AM,52.0,25.0,35,30.23,10.0,NNW,15.0,23.0,N/A,,Clear,340,2013-01-31 16:56:00
11:56 AM,55.0,23.0,29,30.22,10.0,NNW,15.0,21.9,N/A,,Clear,340,2013-01-31 17:56:00
12:56 PM,57.0,21.0,25,30.20,10.0,North,17.3,25.3,N/A,,Clear,350,2013-01-31 18:56:00
1:56 PM,57.0,21.9,26,30.18,10.0,NNW,13.8,20.7,N/A,,Clear,340,2013-01-31 19:56:00
2:56 PM,57.9,21.0,24,30.18,10.0,NNW,12.7,18.4,N/A,,Clear,340,2013-01-31 20:56:00
3:56 PM,57.0,23.0,27,30.19,10.0,North,8.1,-,N/A,,Clear,360,2013-01-31 21:56:00
4:56 PM,54.0,24.1,31,30.20,10.0,Calm,Calm,-,N/A,,Clear,0,2013-01-31 22:56:00
5:56 PM,46.9,30.0,52,30.22,10.0,Calm,Calm,-,N/A,,Clear,0,2013-01-31 23:56:00
6:56 PM,45.0,30.0,56,30.23,10.0,Calm,Calm,-,N/A,,Clear,0,2013-02-01 00:56:00
7:56 PM,45.0,28.9,53,30.25,10.0,Calm,Calm,-,N/A,,Clear,0,2013-02-01 01:56:00
8:56 PM,45.0,32.0,60,30.25,10.0,West,3.5,-,N/A,,Clear,270,2013-02-01 02:56:00
9:56 PM,43.0,33.1,68,30.25,10.0,Calm,Calm,-,N/A,,Clear,0,2013-02-01 03:56:00
10:56 PM,43.0,34.0,71,30.28,10.0,Variable,3.5,-,N/A,,Clear,0,2013-02-01 04:56:00
11:56 PM,43.0,34.0,71,30.28,10.0,Calm,Calm,-,N/A,,Clear,0,2013-02-01 05:56:00